CPA52A RPLL-ROAH

Flight info

Callsign CPA52A
Flight time 2h 2m
Altitude 41000
Route CAB2R CAB DCT CUY DCT DADNU DCT GUMBO DCT ENTOK
Aircraft A359/H-SDE2E3GHIJ3J4J5LM1ORWXY/LB1D1

Departure

Time 2026-04-23 12:22
Airport Ninoy Aquino International Airport (RPLL)

Arrival

Time 2026-04-23 14:24
Airport Naha International Airport (ROAH)
Time Latitude Longitude Altitude Speed Heading
2026-04-23 11:27 14.51568 121.01611 59 ft 0 kts 46°
2026-04-23 12:02 14.51567 121.01610 61 ft 1 kts 46°
2026-04-23 12:02 14.51556 121.01598 61 ft 2 kts 46°
2026-04-23 12:03 14.51546 121.01587 61 ft 2 kts 46°
2026-04-23 12:03 14.51536 121.01577 61 ft 2 kts 46°
2026-04-23 12:03 14.51535 121.01576 61 ft 0 kts 45°
2026-04-23 12:03 14.51527 121.01568 60 ft 2 kts 49°
2026-04-23 12:04 14.51520 121.01554 60 ft 2 kts 77°
2026-04-23 12:04 14.51518 121.01539 60 ft 2 kts 100°
2026-04-23 12:04 14.51523 121.01524 59 ft 2 kts 123°
2026-04-23 12:04 14.51529 121.01517 59 ft 0 kts 137°
2026-04-23 12:05 14.51532 121.01513 59 ft 0 kts 136°
2026-04-23 12:08 14.51527 121.01518 59 ft 2 kts 135°
2026-04-23 12:09 14.51504 121.01541 60 ft 6 kts 136°
2026-04-23 12:09 14.51478 121.01567 60 ft 0 kts 135°
2026-04-23 12:09 14.51466 121.01579 60 ft 6 kts 136°
2026-04-23 12:09 14.51404 121.01586 61 ft 13 kts 191°
2026-04-23 12:10 14.51319 121.01629 62 ft 17 kts 134°
2026-04-23 12:10 14.51207 121.01745 60 ft 28 kts 135°
2026-04-23 12:10 14.51110 121.01845 58 ft 11 kts 141°
2026-04-23 12:10 14.51083 121.01858 58 ft 0 kts 175°
2026-04-23 12:11 14.51130 121.01817 58 ft 0 kts 136°
2026-04-23 12:11 14.51128 121.01819 58 ft 1 kts 136°
2026-04-23 12:11 14.51108 121.01838 58 ft 6 kts 142°
2026-04-23 12:12 14.51053 121.01844 57 ft 10 kts 209°
2026-04-23 12:12 14.50997 121.01757 57 ft 17 kts 239°
2026-04-23 12:12 14.50928 121.01634 58 ft 23 kts 240°
2026-04-23 12:12 14.50767 121.01579 56 ft 0 kts 237°
2026-04-23 12:13 14.50784 121.01543 57 ft 4 kts 242°
2026-04-23 12:13 14.50755 121.01485 56 ft 13 kts 243°
2026-04-23 12:13 14.50699 121.01375 53 ft 20 kts 241°
2026-04-23 12:13 14.50613 121.01220 49 ft 29 kts 240°
2026-04-23 12:14 14.50503 121.01025 44 ft 32 kts 240°
2026-04-23 12:14 14.50402 121.00838 43 ft 24 kts 240°
2026-04-23 12:14 14.50337 121.00722 44 ft 16 kts 239°
2026-04-23 12:14 14.50277 121.00613 43 ft 18 kts 238°
2026-04-23 12:15 14.50187 121.00448 41 ft 20 kts 240°
2026-04-23 12:15 14.50137 121.00360 40 ft 21 kts 238°
2026-04-23 12:15 14.50056 121.00218 38 ft 23 kts 241°
2026-04-23 12:15 14.49973 121.00068 36 ft 20 kts 241°
2026-04-23 12:16 14.49915 120.99976 34 ft 3 kts 214°
2026-04-23 12:16 14.49890 120.99970 34 ft 3 kts 176°
2026-04-23 12:16 14.49889 120.99970 34 ft 0 kts 174°
2026-04-23 12:19 14.49886 120.99970 34 ft 2 kts 170°
2026-04-23 12:19 14.49846 120.99985 34 ft 10 kts 153°
2026-04-23 12:19 14.49803 121.00038 35 ft 4 kts 84°
2026-04-23 12:20 14.49808 121.00050 35 ft 0 kts 60°
2026-04-23 12:20 14.49810 121.00053 35 ft 0 kts 60°
2026-04-23 12:20 14.49812 121.00056 36 ft 0 kts 60°
2026-04-23 12:21 14.49816 121.00063 36 ft 10 kts 60°
2026-04-23 12:21 14.49985 121.00373 38 ft 86 kts 62°
2026-04-23 12:21 14.50403 121.01121 45 ft 150 kts 61°
2026-04-23 12:21 14.50983 121.02155 394 ft 172 kts 62°
2026-04-23 12:22 14.51573 121.03195 1181 ft 166 kts 62°
2026-04-23 12:22 14.52181 121.04189 1718 ft 164 kts 61°
2026-04-23 12:22 14.52829 121.05220 2059 ft 177 kts 60°
2026-04-23 12:22 14.53525 121.06332 2385 ft 192 kts 60°
2026-04-23 12:23 14.54272 121.07545 2732 ft 207 kts 60°
2026-04-23 12:23 14.55069 121.08857 3095 ft 222 kts 60°
2026-04-23 12:23 14.55923 121.10277 3439 ft 241 kts 60°
2026-04-23 12:23 14.56838 121.11816 3895 ft 258 kts 60°
2026-04-23 12:24 14.57836 121.13425 4396 ft 274 kts 51°
2026-04-23 12:24 14.59412 121.14557 5154 ft 282 kts 17°
2026-04-23 12:24 14.61342 121.14645 6126 ft 281 kts 353°
2026-04-23 12:24 14.63290 121.14271 6969 ft 285 kts 349°
2026-04-23 12:25 14.65256 121.13852 7800 ft 290 kts 350°
2026-04-23 12:25 14.67268 121.13465 8658 ft 293 kts 351°
2026-04-23 12:25 14.69296 121.13121 9487 ft 296 kts 353°
2026-04-23 12:25 14.71345 121.12806 10281 ft 299 kts 353°
2026-04-23 12:26 14.73446 121.12503 10836 ft 311 kts 353°
2026-04-23 12:26 14.75687 121.12193 11253 ft 327 kts 353°
2026-04-23 12:26 14.78026 121.11874 11643 ft 344 kts 353°
2026-04-23 12:26 14.80472 121.11545 12081 ft 357 kts 353°
2026-04-23 12:27 14.82965 121.11211 12677 ft 364 kts 353°
2026-04-23 12:27 14.85517 121.10871 13342 ft 368 kts 352°
2026-04-23 12:27 14.88048 121.10533 13993 ft 371 kts 352°
2026-04-23 12:27 14.90637 121.10186 14657 ft 374 kts 352°
2026-04-23 12:28 14.93249 121.09836 15299 ft 377 kts 352°
2026-04-23 12:28 14.95892 121.09482 15930 ft 380 kts 352°
2026-04-23 12:28 14.98522 121.09130 16537 ft 383 kts 352°
2026-04-23 12:28 15.01209 121.08771 17135 ft 386 kts 352°
2026-04-23 12:29 15.03873 121.08415 17720 ft 388 kts 352°
2026-04-23 12:29 15.06600 121.08051 18302 ft 391 kts 352°
2026-04-23 12:29 15.09329 121.07687 18846 ft 395 kts 351°
2026-04-23 12:29 15.12053 121.07323 19370 ft 398 kts 351°
2026-04-23 12:30 15.14842 121.06952 19884 ft 402 kts 351°
2026-04-23 12:30 15.17671 121.06574 20392 ft 406 kts 351°
2026-04-23 12:30 15.20503 121.06195 20887 ft 409 kts 351°
2026-04-23 12:30 15.23344 121.05815 21379 ft 413 kts 351°
2026-04-23 12:31 15.26223 121.05429 21864 ft 416 kts 351°
2026-04-23 12:31 15.29099 121.05042 22346 ft 419 kts 351°
2026-04-23 12:31 15.32058 121.04642 22847 ft 423 kts 351°
2026-04-23 12:31 15.34984 121.04246 23336 ft 426 kts 351°
2026-04-23 12:32 15.37940 121.03847 23819 ft 429 kts 351°
2026-04-23 12:32 15.40939 121.03444 24294 ft 432 kts 351°
2026-04-23 12:32 15.43973 121.03040 24752 ft 435 kts 353°
2026-04-23 12:32 15.47049 121.02990 25163 ft 441 kts
2026-04-23 12:33 15.50099 121.03578 25624 ft 444 kts 16°
2026-04-23 12:33 15.52983 121.04739 26080 ft 447 kts 24°
2026-04-23 12:33 15.55836 121.06140 26533 ft 450 kts 25°
2026-04-23 12:33 15.58699 121.07584 26942 ft 453 kts 25°
2026-04-23 12:34 15.61533 121.09014 27339 ft 455 kts 25°
2026-04-23 12:34 15.64410 121.10459 27738 ft 457 kts 25°
2026-04-23 12:34 15.67292 121.11901 28127 ft 460 kts 25°
2026-04-23 12:34 15.70232 121.13368 28506 ft 462 kts 25°
2026-04-23 12:35 15.73142 121.14818 28870 ft 465 kts 25°
2026-04-23 12:35 15.76069 121.16274 29250 ft 466 kts 25°
2026-04-23 12:35 15.79018 121.17741 29616 ft 468 kts 25°
2026-04-23 12:35 15.82008 121.19230 29974 ft 470 kts 25°
2026-04-23 12:36 15.84966 121.20701 30348 ft 471 kts 25°
2026-04-23 12:36 15.87957 121.22189 30740 ft 472 kts 25°
2026-04-23 12:36 15.90914 121.23659 31088 ft 473 kts 25°
2026-04-23 12:36 15.93903 121.25146 31406 ft 475 kts 26°
2026-04-23 12:37 15.96925 121.26650 31728 ft 477 kts 26°
2026-04-23 12:37 15.99925 121.28143 32060 ft 478 kts 26°
2026-04-23 12:37 16.02945 121.29649 32356 ft 480 kts 26°
2026-04-23 12:37 16.06017 121.31180 32636 ft 482 kts 26°
2026-04-23 12:38 16.10070 121.33202 33079 ft 484 kts 26°
2026-04-23 12:38 16.12143 121.34235 33358 ft 484 kts 26°
2026-04-23 12:38 16.15199 121.35752 33860 ft 482 kts 26°
2026-04-23 12:38 16.18238 121.37262 34387 ft 480 kts 26°
2026-04-23 12:39 16.21227 121.38750 34899 ft 477 kts 26°
2026-04-23 12:39 16.24261 121.40262 35387 ft 475 kts 26°
2026-04-23 12:39 16.27247 121.41752 35833 ft 473 kts 26°
2026-04-23 12:39 16.30235 121.43244 36256 ft 472 kts 26°
2026-04-23 12:40 16.33185 121.44718 36645 ft 471 kts 26°
2026-04-23 12:40 16.36180 121.46215 36987 ft 471 kts 26°
2026-04-23 12:40 16.39134 121.47692 37322 ft 470 kts 26°
2026-04-23 12:40 16.42084 121.49168 37662 ft 469 kts 26°
2026-04-23 12:41 16.45067 121.50661 37973 ft 469 kts 26°
2026-04-23 12:41 16.47991 121.52126 38268 ft 469 kts 26°
2026-04-23 12:41 16.50953 121.53610 38571 ft 468 kts 26°
2026-04-23 12:41 16.53905 121.55090 38874 ft 467 kts 26°
2026-04-23 12:42 16.56821 121.56551 39158 ft 467 kts 26°
2026-04-23 12:42 16.59819 121.58054 39402 ft 467 kts 26°
2026-04-23 12:42 16.62759 121.59529 39600 ft 468 kts 26°
2026-04-23 12:42 16.65734 121.61023 39776 ft 469 kts 26°
2026-04-23 12:43 16.68703 121.62513 39917 ft 470 kts 26°
2026-04-23 12:43 16.71646 121.63992 40045 ft 471 kts 26°
2026-04-23 12:43 16.74633 121.65494 40178 ft 472 kts 26°
2026-04-23 12:43 16.77590 121.66993 40325 ft 473 kts 26°
2026-04-23 12:44 16.80585 121.68514 40488 ft 474 kts 26°
2026-04-23 12:44 16.83574 121.70024 40635 ft 474 kts 26°
2026-04-23 12:44 16.86601 121.71549 40759 ft 475 kts 26°
2026-04-23 12:44 16.89577 121.73045 40878 ft 476 kts 26°
2026-04-23 12:45 16.95590 121.76107 40936 ft 476 kts 27°
2026-04-23 12:45 17.01482 121.79253 40940 ft 476 kts 27°
2026-04-23 12:46 17.07449 121.82444 40936 ft 477 kts 27°
2026-04-23 12:46 17.13379 121.85597 40941 ft 477 kts 27°
2026-04-23 12:47 17.19338 121.88752 40939 ft 477 kts 27°
2026-04-23 12:47 17.25302 121.91920 40952 ft 477 kts 27°
2026-04-23 12:48 17.31241 121.95081 40966 ft 475 kts 27°
2026-04-23 12:48 17.37146 121.98229 40985 ft 475 kts 27°
2026-04-23 12:49 17.43098 122.01403 41008 ft 476 kts 26°
2026-04-23 12:49 17.49025 122.04566 41023 ft 477 kts 26°
2026-04-23 12:50 17.54968 122.07739 41014 ft 477 kts 26°
2026-04-23 12:50 17.60908 122.10914 40990 ft 476 kts 26°
2026-04-23 12:51 17.66828 122.14080 40972 ft 476 kts 26°
2026-04-23 12:51 17.72756 122.17252 40957 ft 476 kts 26°
2026-04-23 12:52 17.78748 122.20345 40948 ft 477 kts 23°
2026-04-23 12:52 17.84978 122.22849 40946 ft 477 kts 17°
2026-04-23 12:53 17.91399 122.24649 40936 ft 476 kts 11°
2026-04-23 12:53 17.97965 122.25993 40936 ft 476 kts 10°
2026-04-23 12:54 18.04477 122.27292 40935 ft 476 kts 10°
2026-04-23 12:54 18.11065 122.28612 40939 ft 477 kts
2026-04-23 12:55 18.17595 122.29919 40944 ft 477 kts
2026-04-23 12:55 18.24160 122.31239 40952 ft 478 kts
2026-04-23 12:56 18.30702 122.32557 40954 ft 477 kts
2026-04-23 12:56 18.37246 122.33878 40944 ft 478 kts
2026-04-23 12:57 18.43836 122.35210 40936 ft 478 kts
2026-04-23 12:57 18.50392 122.36535 40927 ft 479 kts
2026-04-23 12:58 18.56985 122.37869 40926 ft 479 kts
2026-04-23 12:58 18.63542 122.39198 40926 ft 479 kts
2026-04-23 12:59 18.70119 122.40533 40924 ft 480 kts
2026-04-23 12:59 18.76721 122.41872 40925 ft 480 kts
2026-04-23 13:00 18.83303 122.43208 40925 ft 480 kts
2026-04-23 13:00 18.89910 122.44550 40925 ft 481 kts
2026-04-23 13:01 18.96475 122.45885 40923 ft 482 kts
2026-04-23 13:01 19.03117 122.47236 40921 ft 482 kts
2026-04-23 13:02 19.09697 122.48578 40923 ft 482 kts
2026-04-23 13:02 19.16314 122.49923 40923 ft 482 kts
2026-04-23 13:03 19.22949 122.51273 40923 ft 481 kts
2026-04-23 13:03 19.29555 122.52620 40922 ft 482 kts
2026-04-23 13:04 19.36152 122.53968 40922 ft 482 kts
2026-04-23 13:04 19.42754 122.55318 40922 ft 482 kts
2026-04-23 13:05 19.49358 122.56670 40923 ft 482 kts
2026-04-23 13:05 19.55975 122.58025 40922 ft 481 kts
2026-04-23 13:06 19.65892 122.60059 40924 ft 481 kts
2026-04-23 13:07 19.73554 122.61632 40924 ft 480 kts
2026-04-23 13:07 19.79049 122.62762 40922 ft 480 kts
2026-04-23 13:08 19.85678 122.64125 40922 ft 481 kts
2026-04-23 13:08 19.92273 122.65488 40923 ft 481 kts
2026-04-23 13:09 19.98897 122.66885 40924 ft 481 kts
2026-04-23 13:09 20.05477 122.68259 40924 ft 481 kts
2026-04-23 13:10 20.12133 122.69638 40920 ft 480 kts
2026-04-23 13:10 20.18686 122.70988 40920 ft 480 kts
2026-04-23 13:11 20.25267 122.72345 40922 ft 480 kts
2026-04-23 13:11 20.31853 122.73708 40923 ft 481 kts
2026-04-23 13:12 20.38459 122.75075 40925 ft 481 kts
2026-04-23 13:12 20.45085 122.76449 40926 ft 481 kts
2026-04-23 13:13 20.51705 122.77823 40923 ft 481 kts
2026-04-23 13:13 20.58358 122.79204 40919 ft 481 kts
2026-04-23 13:14 20.64996 122.80583 40916 ft 481 kts
2026-04-23 13:14 20.71633 122.81963 40910 ft 481 kts
2026-04-23 13:15 20.78231 122.83335 40911 ft 482 kts
2026-04-23 13:15 20.84864 122.84717 40908 ft 482 kts
2026-04-23 13:16 20.91548 122.86112 40905 ft 482 kts
2026-04-23 13:16 20.98165 122.87492 40903 ft 481 kts
2026-04-23 13:17 21.04769 122.88871 40902 ft 481 kts
2026-04-23 13:17 21.11374 122.90253 40897 ft 482 kts
2026-04-23 13:18 21.17991 122.91633 40894 ft 482 kts
2026-04-23 13:18 21.24594 122.93013 40898 ft 482 kts
2026-04-23 13:19 21.31244 122.94407 40891 ft 483 kts
2026-04-23 13:19 21.37861 122.95795 40899 ft 483 kts
2026-04-23 13:20 21.44483 122.97187 40904 ft 482 kts
2026-04-23 13:20 21.51071 122.98572 40905 ft 482 kts
2026-04-23 13:21 21.57725 122.99971 40898 ft 482 kts
2026-04-23 13:21 21.64331 123.01361 40895 ft 483 kts
2026-04-23 13:22 21.70992 123.02766 40895 ft 484 kts
2026-04-23 13:22 21.77640 123.04168 40891 ft 484 kts
2026-04-23 13:23 21.84268 123.05570 40890 ft 485 kts
2026-04-23 13:23 21.90936 123.06979 40887 ft 485 kts
2026-04-23 13:24 21.97575 123.08382 40882 ft 485 kts
2026-04-23 13:24 22.04217 123.09789 40879 ft 485 kts
2026-04-23 13:25 22.10898 123.11207 40886 ft 485 kts
2026-04-23 13:25 22.17535 123.12611 40879 ft 485 kts
2026-04-23 13:26 22.24167 123.14018 40873 ft 485 kts
2026-04-23 13:26 22.30850 123.15438 40878 ft 485 kts
2026-04-23 13:27 22.37496 123.16852 40871 ft 485 kts
2026-04-23 13:27 22.44149 123.18269 40869 ft 485 kts
2026-04-23 13:28 22.50807 123.19688 40869 ft 486 kts
2026-04-23 13:28 22.57470 123.21110 40861 ft 486 kts
2026-04-23 13:29 22.64102 123.22525 40854 ft 486 kts
2026-04-23 13:29 22.70802 123.23970 40844 ft 487 kts
2026-04-23 13:30 22.77382 123.25910 40844 ft 492 kts 13°
2026-04-23 13:30 22.83827 123.28637 40846 ft 496 kts 18°
2026-04-23 13:31 22.90172 123.31671 40842 ft 497 kts 19°
2026-04-23 13:31 22.96536 123.34730 40837 ft 498 kts 19°
2026-04-23 13:32 23.02886 123.37775 40834 ft 498 kts 18°
2026-04-23 13:32 23.09226 123.40813 40838 ft 498 kts 18°
2026-04-23 13:33 23.15614 123.43866 40843 ft 498 kts 18°
2026-04-23 13:33 23.21996 123.46918 40843 ft 499 kts 18°
2026-04-23 13:34 23.28387 123.49983 40844 ft 499 kts 18°
2026-04-23 13:34 23.34759 123.53044 40838 ft 499 kts 18°
2026-04-23 13:35 23.41164 123.56125 40844 ft 501 kts 18°
2026-04-23 13:35 23.47585 123.59218 40853 ft 501 kts 18°
2026-04-23 13:36 23.54003 123.62313 40855 ft 501 kts 18°
2026-04-23 13:36 23.60383 123.65394 40859 ft 501 kts 18°
2026-04-23 13:37 23.66774 123.68514 40867 ft 502 kts 18°
2026-04-23 13:37 23.73191 123.71639 40868 ft 503 kts 18°
2026-04-23 13:38 23.79646 123.74775 40874 ft 503 kts 18°
2026-04-23 13:38 23.86035 123.77874 40874 ft 504 kts 18°
2026-04-23 13:39 23.92505 123.81015 40876 ft 504 kts 18°
2026-04-23 13:39 23.98922 123.84134 40878 ft 504 kts 18°
2026-04-23 13:40 24.05366 123.87266 40881 ft 505 kts 18°
2026-04-23 13:40 24.11839 123.90417 40883 ft 505 kts 18°
2026-04-23 13:41 24.18297 123.93554 40881 ft 505 kts 18°
2026-04-23 13:41 24.24746 123.96694 40880 ft 506 kts 18°
2026-04-23 13:42 24.31196 123.99842 40870 ft 507 kts 18°
2026-04-23 13:42 24.37657 124.03002 40868 ft 508 kts 18°
2026-04-23 13:43 24.44111 124.06162 40879 ft 508 kts 18°
2026-04-23 13:43 24.50582 124.09334 40881 ft 508 kts 18°
2026-04-23 13:44 24.57067 124.12518 40881 ft 508 kts 17°
2026-04-23 13:44 24.63553 124.15704 40887 ft 509 kts 18°
2026-04-23 13:45 24.70022 124.18884 40890 ft 510 kts 18°
2026-04-23 13:45 24.76527 124.22089 40890 ft 509 kts 17°
2026-04-23 13:46 24.83028 124.25291 40892 ft 511 kts 17°
2026-04-23 13:46 24.89564 124.28521 40901 ft 510 kts 18°
2026-04-23 13:47 24.96029 124.31715 40901 ft 508 kts 17°
2026-04-23 13:47 25.02533 124.34934 40904 ft 510 kts 17°
2026-04-23 13:48 25.09029 124.38150 40902 ft 509 kts 17°
2026-04-23 13:48 25.15513 124.41357 40907 ft 508 kts 17°
2026-04-23 13:49 25.21974 124.44556 40901 ft 510 kts 17°
2026-04-23 13:49 25.28484 124.47790 40896 ft 510 kts 17°
2026-04-23 13:50 25.34963 124.51010 40897 ft 510 kts 17°
2026-04-23 13:50 25.41426 124.54232 40897 ft 511 kts 17°
2026-04-23 13:51 25.47932 124.57477 40903 ft 511 kts 17°
2026-04-23 13:51 25.54444 124.60729 40903 ft 510 kts 17°
2026-04-23 13:52 25.60914 124.63967 40904 ft 510 kts 17°
2026-04-23 13:52 25.67417 124.67236 40899 ft 511 kts 17°
2026-04-23 13:53 25.73890 124.70509 40905 ft 511 kts 18°
2026-04-23 13:53 25.80403 124.73791 40908 ft 512 kts 17°
2026-04-23 13:54 25.86868 124.77039 40921 ft 511 kts 17°
2026-04-23 13:54 25.93367 124.80309 40921 ft 511 kts 17°
2026-04-23 13:55 25.99871 124.83583 40922 ft 510 kts 17°
2026-04-23 13:55 26.06322 124.86834 40925 ft 511 kts 17°
2026-04-23 13:56 26.12830 124.90111 40466 ft 512 kts 17°
2026-04-23 13:56 26.16119 124.91763 39418 ft 518 kts 17°
2026-04-23 13:56 26.19440 124.93433 38141 ft 526 kts 17°
2026-04-23 13:56 26.22764 124.95239 36801 ft 539 kts 25°
2026-04-23 13:57 26.25791 124.97817 35451 ft 555 kts 41°
2026-04-23 13:57 26.28212 125.01167 34330 ft 564 kts 56°
2026-04-23 13:57 26.29865 125.05106 33453 ft 564 kts 72°
2026-04-23 13:57 26.30637 125.09329 32793 ft 558 kts 87°
2026-04-23 13:58 26.30522 125.13610 32111 ft 552 kts 99°
2026-04-23 13:58 26.29961 125.17825 31393 ft 549 kts 102°
2026-04-23 13:58 26.29332 125.22054 30741 ft 545 kts 102°
2026-04-23 13:58 26.28722 125.26164 30227 ft 539 kts 102°
2026-04-23 13:59 26.28126 125.30299 29645 ft 535 kts 101°
2026-04-23 13:59 26.27559 125.34362 29107 ft 530 kts 101°
2026-04-23 13:59 26.27010 125.38412 28587 ft 526 kts 100°
2026-04-23 13:59 26.26474 125.42425 28023 ft 523 kts 100°
2026-04-23 14:00 26.25950 125.46402 27485 ft 519 kts 101°
2026-04-23 14:00 26.25427 125.50349 27014 ft 513 kts 101°
2026-04-23 14:00 26.24910 125.54250 26535 ft 508 kts 100°
2026-04-23 14:00 26.24393 125.58131 26054 ft 503 kts 100°
2026-04-23 14:01 26.23884 125.61960 25561 ft 500 kts 100°
2026-04-23 14:01 26.23376 125.65793 25081 ft 495 kts 101°
2026-04-23 14:01 26.22873 125.69571 24596 ft 491 kts 101°
2026-04-23 14:01 26.22376 125.73285 24153 ft 485 kts 101°
2026-04-23 14:02 26.21884 125.76968 23696 ft 481 kts 101°
2026-04-23 14:02 26.21398 125.80622 23273 ft 475 kts 101°
2026-04-23 14:02 26.20907 125.84257 22823 ft 471 kts 102°
2026-04-23 14:02 26.20427 125.87826 22395 ft 466 kts 102°
2026-04-23 14:03 26.19945 125.91386 21972 ft 461 kts 102°
2026-04-23 14:03 26.19471 125.94866 21534 ft 457 kts 102°
2026-04-23 14:03 26.18995 125.98357 21068 ft 454 kts 102°
2026-04-23 14:03 26.18527 126.01788 20649 ft 450 kts 102°
2026-04-23 14:04 26.18056 126.05212 20231 ft 446 kts 102°
2026-04-23 14:04 26.17586 126.08645 19788 ft 442 kts 101°
2026-04-23 14:04 26.17132 126.11983 19347 ft 439 kts 102°
2026-04-23 14:04 26.16671 126.15339 18887 ft 437 kts 102°
2026-04-23 14:05 26.16218 126.18644 18430 ft 434 kts 102°
2026-04-23 14:05 26.15762 126.21963 17965 ft 432 kts 101°
2026-04-23 14:05 26.15312 126.25227 17545 ft 428 kts 101°
2026-04-23 14:05 26.14859 126.28504 17070 ft 427 kts 101°
2026-04-23 14:06 26.14408 126.31767 16643 ft 423 kts 101°
2026-04-23 14:06 26.13968 126.34948 16210 ft 421 kts 101°
2026-04-23 14:06 26.13522 126.38153 15767 ft 418 kts 101°
2026-04-23 14:06 26.13078 126.41341 15348 ft 415 kts 101°
2026-04-23 14:07 26.12637 126.44512 14922 ft 411 kts 101°
2026-04-23 14:07 26.11775 126.50707 14082 ft 406 kts 101°
2026-04-23 14:07 26.11339 126.53820 13637 ft 403 kts 101°
2026-04-23 14:08 26.10911 126.56888 13224 ft 399 kts 101°
2026-04-23 14:08 26.10487 126.59904 12785 ft 397 kts 101°
2026-04-23 14:08 26.10061 126.62933 12360 ft 394 kts 101°
2026-04-23 14:08 26.09645 126.65904 11946 ft 391 kts 101°
2026-04-23 14:09 26.09227 126.68894 11513 ft 388 kts 101°
2026-04-23 14:09 26.08814 126.71833 11078 ft 385 kts 101°
2026-04-23 14:09 26.08404 126.74745 10692 ft 380 kts 101°
2026-04-23 14:09 26.07996 126.77638 10470 ft 369 kts 101°
2026-04-23 14:10 26.07607 126.80405 10259 ft 358 kts 101°
2026-04-23 14:10 26.07225 126.83111 10172 ft 344 kts 101°
2026-04-23 14:10 26.06860 126.85685 10026 ft 334 kts 101°
2026-04-23 14:10 26.06504 126.88201 9955 ft 321 kts 102°
2026-04-23 14:11 26.06159 126.90617 9907 ft 309 kts 101°
2026-04-23 14:11 26.05827 126.92944 9728 ft 306 kts 101°
2026-04-23 14:11 26.05493 126.95267 9461 ft 305 kts 101°
2026-04-23 14:11 26.05158 126.97606 9182 ft 303 kts 101°
2026-04-23 14:12 26.04826 126.99912 8918 ft 301 kts 101°
2026-04-23 14:12 26.04496 127.02218 8637 ft 301 kts 101°
2026-04-23 14:12 26.04170 127.04478 8368 ft 300 kts 101°
2026-04-23 14:12 26.03837 127.06795 8100 ft 298 kts 101°
2026-04-23 14:13 26.03513 127.09044 7830 ft 297 kts 101°
2026-04-23 14:13 26.03186 127.11323 7574 ft 296 kts 100°
2026-04-23 14:13 26.02863 127.13561 7316 ft 294 kts 100°
2026-04-23 14:13 26.02539 127.15795 7058 ft 293 kts 100°
2026-04-23 14:14 26.02218 127.18034 6791 ft 292 kts 100°
2026-04-23 14:14 26.01890 127.20288 6528 ft 291 kts 100°
2026-04-23 14:14 26.01571 127.22489 6265 ft 290 kts 100°
2026-04-23 14:14 26.01251 127.24709 6004 ft 290 kts 100°
2026-04-23 14:15 26.00929 127.26931 5752 ft 288 kts 100°
2026-04-23 14:15 26.00610 127.29127 5489 ft 287 kts 100°
2026-04-23 14:15 26.00292 127.31326 5244 ft 286 kts 100°
2026-04-23 14:15 25.99977 127.33487 4998 ft 284 kts 101°
2026-04-23 14:16 25.99655 127.35683 4743 ft 283 kts 100°
2026-04-23 14:16 25.99338 127.37851 4495 ft 282 kts 100°
2026-04-23 14:16 25.99025 127.40006 4247 ft 281 kts 101°
2026-04-23 14:16 25.98712 127.42144 3981 ft 279 kts 101°
2026-04-23 14:17 25.98399 127.44278 3730 ft 277 kts 101°
2026-04-23 14:17 25.98089 127.46390 3475 ft 274 kts 101°
2026-04-23 14:17 25.97783 127.48480 3225 ft 272 kts 101°
2026-04-23 14:17 25.97477 127.50558 2978 ft 269 kts 101°
2026-04-23 14:18 25.97178 127.52590 2771 ft 264 kts 101°
2026-04-23 14:18 25.96884 127.54578 2744 ft 252 kts 101°
2026-04-23 14:18 25.96608 127.56467 2712 ft 241 kts 101°
2026-04-23 14:18 25.96432 127.58275 2643 ft 232 kts 84°
2026-04-23 14:19 25.97081 127.59845 2558 ft 219 kts 40°
2026-04-23 14:19 25.98291 127.60796 2541 ft 204 kts 27°
2026-04-23 14:19 25.99479 127.61596 2504 ft 193 kts 27°
2026-04-23 14:19 26.00609 127.62370 2458 ft 185 kts 28°
2026-04-23 14:20 26.01704 127.63145 2374 ft 186 kts 29°
2026-04-23 14:20 26.02790 127.63929 2231 ft 185 kts 30°
2026-04-23 14:20 26.03869 127.64722 2073 ft 184 kts 30°
2026-04-23 14:20 26.04974 127.65461 1845 ft 182 kts 13°
2026-04-23 14:21 26.06189 127.65568 1769 ft 169 kts 351°
2026-04-23 14:21 26.07327 127.65445 1740 ft 152 kts 348°
2026-04-23 14:21 26.08346 127.65321 1721 ft 145 kts 347°
2026-04-23 14:21 26.09354 127.65170 1707 ft 143 kts 347°
2026-04-23 14:22 26.10336 127.65027 1524 ft 141 kts 349°
2026-04-23 14:22 26.11328 127.64940 1341 ft 140 kts 353°
2026-04-23 14:22 26.12314 127.64887 1160 ft 139 kts 354°
2026-04-23 14:22 26.13285 127.64842 985 ft 139 kts 354°
2026-04-23 14:23 26.14254 127.64796 809 ft 139 kts 354°
2026-04-23 14:23 26.15230 127.64749 627 ft 138 kts 355°
2026-04-23 14:23 26.16200 127.64713 445 ft 138 kts 359°
2026-04-23 14:23 26.17163 127.64681 247 ft 138 kts 358°
2026-04-23 14:24 26.18116 127.64648 100 ft 136 kts 356°
2026-04-23 14:24 26.19033 127.64610 33 ft 117 kts 356°
2026-04-23 14:24 26.19672 127.64578 34 ft 63 kts 356°
2026-04-23 14:24 26.19932 127.64568 33 ft 12 kts 358°
2026-04-23 14:25 26.20029 127.64565 32 ft 20 kts 360°
2026-04-23 14:25 26.20227 127.64588 30 ft 32 kts 16°
2026-04-23 14:25 26.20397 127.64679 30 ft 12 kts 27°
2026-04-23 14:25 26.20477 127.64723 31 ft 13 kts 26°
2026-04-23 14:26 26.20563 127.64747 31 ft 12 kts
2026-04-23 14:26 26.20630 127.64806 32 ft 12 kts 75°
2026-04-23 14:26 26.20624 127.64880 35 ft 1 kts 114°
2026-04-23 14:26 26.20614 127.64889 35 ft 2 kts 147°
2026-04-23 14:27 26.20594 127.64903 36 ft 4 kts 147°
2026-04-23 14:27 26.20564 127.64925 36 ft 5 kts 148°